Paducah, KY

10:52 PM CDT on May 25, 2017 (GMT -0500)
Barkley Regional

Weather History for KPAH - December, 2011

Change the Weather History Date:

Thursday, December 15, 2011

  Actual Average Record
Temperature  
Mean Temperature 51 °F 37 °F  
Max Temperature 63 °F 46 °F 71 °F (1984)
Min Temperature 38 °F 28 °F 2 °F (1989)
Degree Days  
Heating Degree Days 14 28  
Month to date heating degree days 351 386  
Since 1 July heating degree days 1041 1163  
Cooling Degree Days 0 0  
Month to date cooling degree days 0 0  
Year to date cooling degree days 1703 1542  
Growing Degree Days 1 (Base 50)    
Moisture  
Dew Point 50 °F    
Average Humidity 78    
Maximum Humidity 90    
Minimum Humidity 65    
Precipitation  
Precipitation 0.42 in 0.14 in 2.05 in (2007)
Month to date precipitation 5.81 2.32  
Year to date precipitation 73.37 46.81  
Snow  
Snow 0.00 in 0.10 in 1.00 in (1972)
Month to date snowfall T 0.9  
Since 1 July snowfall 0.3 1.0  
Snow Depth 0.00 in    
Sea Level Pressure  
Sea Level Pressure 30.06 in    
Wind  
Wind Speed 13 mph (West)    
Max Wind Speed 23 mph    
Max Gust Speed 30 mph    
Visibility 9 miles    
Events Rain    
T = Trace of Precipitation, MM = Missing Value Source: NWS Daily Summary

Daily Weather History Graph

Daily Weather History Graph

Search for Another Location

Airport or City:

Trip Planner

Search our weather history database for the weather conditions in past years. The results will help you decide how hot, cold, wet, or windy it might be!

Date:

Astronomy

Dec. 15, 2011 Rise Set
Actual Time 7:01 AM CST 4:39 PM CST
Civil Twilight 6:32 AM CST 5:08 PM CST
Nautical Twilight 5:59 AM CST 5:40 PM CST
Astronomical Twilight 5:27 AM CST 6:12 PM CST
Moon 9:59 PM CST (12/15) 10:22 AM CST (12/15)
Length of Visible Light 10h 36m
Length of Day
9h 38m
Waning Gibbous, 74% of the Moon is Illuminated
Dec 15
Waning Gibbous
Dec 17
Last Quarter
Dec 24
New
Jan 1
First Quarter
Jan 9
Full

Hourly Weather History & Observations

Time (CST) Temp. Windchill Dew Point Humidity Pressure Visibility Wind Dir Wind Speed Gust Speed Precip Events Conditions
12:41 AM 59.0 °F - 55.4 °F 88% 29.98 in 2.0 mi WSW 13.8 mph - 0.10 in Rain Heavy Rain
12:53 AM 57.9 °F - 55.9 °F 93% 29.97 in 2.0 mi SSW 11.5 mph 18.4 mph 0.19 in Rain Heavy Rain
1:00 AM 59.0 °F - 55.4 °F 88% 29.96 in 3.0 mi SSW 10.4 mph 18.4 mph 0.04 in Rain Light Rain
1:53 AM 59.0 °F - 55.9 °F 90% 29.93 in 10.0 mi South 10.4 mph 21.9 mph 0.10 in Rain Light Rain
2:53 AM 60.1 °F - 57.0 °F 90% 29.92 in 6.0 mi SSW 13.8 mph 24.2 mph 0.02 in Rain Light Rain
3:16 AM 60.8 °F - 57.2 °F 88% 29.92 in 5.0 mi SSW 8.1 mph 28.8 mph 0.03 in Rain Rain
3:26 AM 60.8 °F - 57.2 °F 88% 29.92 in 4.0 mi SSW 12.7 mph 20.7 mph 0.05 in Rain Rain
3:53 AM 61.0 °F - 57.9 °F 90% 29.91 in 10.0 mi SSW 10.4 mph 24.2 mph 0.08 in Rain Light Rain
4:53 AM 62.1 °F - 59.0 °F 90% 29.90 in 10.0 mi SSW 13.8 mph 23.0 mph 0.01 in Rain Light Rain
5:53 AM 62.1 °F - 60.1 °F 93% 29.92 in 10.0 mi SSW 13.8 mph 24.2 mph 0.02 in Rain Light Rain
6:53 AM 63.0 °F - 60.1 °F 90% 29.94 in 10.0 mi SW 16.1 mph 29.9 mph 0.00 in   Overcast
7:53 AM 62.6 °F - 59.0 °F 88% 29.96 in 10.0 mi WSW 16.1 mph 25.3 mph N/A   Overcast
8:26 AM 62.6 °F - 57.2 °F 82% 29.98 in 10.0 mi WSW 20.7 mph 25.3 mph N/A   Overcast
8:43 AM 62.6 °F - 57.2 °F 82% 29.98 in 10.0 mi WSW 18.4 mph 24.2 mph N/A   Mostly Cloudy
8:53 AM 62.6 °F - 57.2 °F 82% 29.99 in 10.0 mi WSW 13.8 mph 23.0 mph N/A   Scattered Clouds
9:53 AM 62.1 °F - 57.9 °F 86% 30.01 in 10.0 mi WSW 13.8 mph - N/A   Mostly Cloudy
10:53 AM 62.1 °F - 57.0 °F 84% 30.01 in 10.0 mi WSW 13.8 mph - N/A   Scattered Clouds
11:53 AM 61.0 °F - 55.9 °F 83% 30.01 in 10.0 mi West 15.0 mph - N/A   Partly Cloudy
12:53 PM 62.1 °F - 55.0 °F 78% 30.01 in 10.0 mi West 11.5 mph - N/A   Clear
1:17 PM 62.6 °F - 55.4 °F 77% 30.02 in 10.0 mi West 15.0 mph - N/A   Mostly Cloudy
1:40 PM 62.6 °F - 55.4 °F 77% 30.02 in 10.0 mi West 13.8 mph - N/A   Scattered Clouds
1:53 PM 62.1 °F - 55.0 °F 78% 30.02 in 10.0 mi West 10.4 mph - N/A   Clear
2:18 PM 60.8 °F - 51.8 °F 72% 30.05 in 10.0 mi NW 15.0 mph 20.7 mph N/A   Mostly Cloudy
2:53 PM 59.0 °F - 50.0 °F 72% 30.07 in 10.0 mi WNW 8.1 mph - N/A   Mostly Cloudy
3:53 PM 57.0 °F - 46.0 °F 67% 30.09 in 10.0 mi NW 9.2 mph - N/A   Partly Cloudy
4:53 PM 53.1 °F - 45.0 °F 74% 30.12 in 10.0 mi North 12.7 mph 20.7 mph N/A   Clear
5:53 PM 48.0 °F - 39.9 °F 74% 30.17 in 10.0 mi North 15.0 mph - N/A   Clear
6:53 PM 45.0 °F 38.9 °F 37.9 °F 76% 30.23 in 10.0 mi North 12.7 mph 23.0 mph N/A   Partly Cloudy
7:53 PM 44.1 °F 36.8 °F 35.1 °F 71% 30.26 in 10.0 mi North 16.1 mph 26.5 mph N/A   Clear
8:53 PM 42.1 °F 35.2 °F 33.1 °F 70% 30.28 in 10.0 mi North 12.7 mph - N/A   Clear
9:53 PM 41.0 °F 33.5 °F 30.9 °F 67% 30.28 in 10.0 mi North 13.8 mph 20.7 mph N/A   Clear
10:46 PM 39.2 °F 31.2 °F 32.0 °F 75% 30.29 in 9.0 mi North 13.8 mph - N/A   Mostly Cloudy
10:53 PM 39.9 °F 32.9 °F 32.0 °F 73% 30.29 in 9.0 mi North 11.5 mph - N/A   Mostly Cloudy
11:10 PM 39.2 °F 32.0 °F 32.0 °F 75% 30.30 in 9.0 mi North 11.5 mph - N/A   Scattered Clouds
11:53 PM 37.9 °F 29.6 °F 28.9 °F 70% 30.30 in 10.0 mi North 13.8 mph - N/A   Clear